OE1TRI Weather Reports


time (UTC)temp
C
wind
direction
speed
KPH
gust
KPH
rain 1hr
cm
rain 24hr
cm
rain mn
cm
humidity
%
barometer
mb
20260506192005 20 90 3.2 16.1 0.00 0.00 0.00 57 1010.8
20260506190005 20 267 12.9 16.1 0.00 0.00 0.00 56 1010.8
20260506185005 20 172 4.8 14.5 0.00 0.00 0.00 55 1010.8
20260506184005 20 126 9.7 14.5 0.00 0.00 0.00 55 1010.5
20260506183005 21 209 8.0 16.1 0.00 0.00 0.00 54 1010.5
20260506182005 21 108 9.7 16.1 0.00 0.00 0.00 54 1010.5
20260506181005 21 258 4.8 12.9 0.00 0.00 0.00 53 1010.2
20260506180005 21 131 4.8 11.3 0.00 0.00 0.00 52 1010.5
20260506174005 22 130 4.8 24.1 0.00 0.00 0.00 52 1010.2
20260506173005 22 80 14.5 24.1 0.00 0.00 0.00 51 1010.2
20260506172005 22 74 12.9 24.1 0.00 0.00 0.00 51 1010.2
20260506171004 22 129 9.7 22.5 0.00 0.00 0.00 50 1010.2
20260506170004 22 98 9.7 14.5 0.00 0.00 0.00 50 1010.2
20260506165005 23 144 6.4 12.9 0.00 0.00 0.00 48 1010.2
20260506162005 23 64 16.1 25.7 0.00 0.00 0.00 47 1010.5
20260506160005 23 179 4.8 22.5 0.00 0.00 0.00 48 1010.5
20260506155005 23 222 4.8 22.5 0.00 0.00 0.00 47 1010.5
20260506154005 23 180 12.9 22.5 0.00 0.00 0.00 46 1010.5
20260506153005 24 226 14.5 27.4 0.00 0.00 0.00 45 1010.5
20260506152005 24 254 9.7 25.7 0.00 0.00 0.00 45 1010.5
20260506150005 24 235 12.9 19.3 0.00 0.00 0.00 44 1010.5
20260506145005 24 233 4.8 22.5 0.00 0.00 0.00 43 1010.5
20260506144004 24 198 12.9 20.9 0.00 0.00 0.00 42 1010.5
20260506143005 25 129 14.5 25.7 0.00 0.00 0.00 42 1010.8
20260506142005 25 101 20.9 25.7 0.00 0.00 0.00 42 1010.5
20260506141005 25 128 14.5 29.0 0.00 0.00 0.00 41 1010.8
20260506140005 25 126 16.1 29.0 0.00 0.00 0.00 41 1010.8
20260506135005 25 167 9.7 16.1 0.00 0.00 0.00 40 1011.2
20260506134005 25 146 11.3 19.3 0.00 0.00 0.00 40 1011.2
20260506132005 24 177 11.3 16.1 0.00 0.00 0.00 42 1011.5
20260506131004 23 163 3.2 20.9 0.00 0.00 0.00 42 1011.2
20260506125004 24 152 16.1 29.0 0.00 0.00 0.00 41 1011.9
20260506123005 23 157 12.9 19.3 0.00 0.00 0.00 41 1012.2
20260506122005 24 129 4.8 9.7 0.00 0.00 0.00 43 1012.2
20260506121004 23 111 1.6 9.7 0.00 0.00 0.00 44 1012.5
20260506120005 23 84 4.8 14.5 0.00 0.00 0.00 44 1012.5
20260506113004 23 90 16.1 22.5 0.00 0.00 0.00 45 1013.2
20260506112005 23 111 3.2 16.1 0.00 0.00 0.00 46 1012.9
20260506110005 23 121 8.0 22.5 0.00 0.00 0.00 46 1013.2
20260506105005 23 176 11.3 24.1 0.00 0.00 0.00 48 1013.2
20260506104004 23 65 12.9 24.1 0.00 0.00 0.00 47 1013.2
20260506103005 22 153 11.3 19.3 0.00 0.00 0.00 47 1013.5
20260506101004 23 20 8.0 16.1 0.00 0.00 0.00 50 1013.9
20260506100005 23 149 9.7 16.1 0.00 0.00 0.00 51 1014.2
20260506095005 22 107 8.0 24.1 0.00 0.00 0.00 49 1013.9
20260506094005 23 139 9.7 24.1 0.00 0.00 0.00 47 1014.2
20260506093005 22 135 11.3 19.3 0.00 0.00 0.00 47 1014.2
20260506091005 23 85 3.2 8.0 0.00 0.00 0.00 49 1014.2
20260506090005 24 58 4.8 11.3 0.00 0.00 0.00 47 1014.6
20260506085004 24 358 4.8 8.0 0.00 0.00 0.00 46 1014.2
20260506084004 25 34 4.8 8.0 0.00 0.00 0.00 44 1014.2
20260506083005 24 233 3.2 4.8 0.00 0.00 0.00 46 1014.2
20260506082004 23 124 1.6 8.0 0.00 0.00 0.00 48 1014.6
20260506081005 22 56 4.8 9.7 0.00 0.00 0.00 48 1014.6
20260506072005 23 94 1.6 3.2 0.00 0.00 0.00 48 1014.9
20260506062004 20 46 4.8 8.0 0.00 0.00 0.00 55 1015.2
20260506061005 19 256 1.6 3.2 0.00 0.00 0.00 57 1014.9
20260506051004 18 306 4.8 8.0 0.00 0.00 0.00 62 1014.9
20260506045005 17 70 0.0 4.8 0.00 0.00 0.00 66 1014.9
20260506042004 16 189 3.2 9.7 0.00 0.00 0.00 69 1014.8
20260506040005 16 61 3.2 4.8 0.00 0.00 0.00 70 1014.6
20260506035005 16 37 3.2 9.7 0.00 0.00 0.00 71 1014.2
20260506032004 16 233 3.2 4.8 0.00 0.00 0.00 71 1014.6
20260506031004 16 210 3.2 4.8 0.00 0.00 0.00 71 1014.6
20260506030004 16 10 4.8 4.8 0.00 0.00 0.00 71 1014.6
20260506025005 16 178 3.2 8.0 0.00 0.00 0.00 71 1014.6
20260506021005 17 12 4.8 9.7 0.00 0.00 0.00 71 1014.2
20260506020005 17 332 3.2 11.3 0.00 0.00 0.00 70 1013.9
20260506015004 17 282 4.8 11.3 0.00 0.00 0.00 69 1013.9
20260506014005 17 54 1.6 9.7 0.00 0.00 0.00 69 1013.9
20260506013005 17 219 4.8 9.7 0.00 0.00 0.00 68 1013.9
20260506012005 17 52 4.8 11.3 0.00 0.00 0.00 67 1013.9
20260506011005 17 226 4.8 11.3 0.00 0.00 0.00 65 1013.5
20260506010004 18 106 4.8 8.0 0.00 0.00 0.00 65 1013.5
20260506004005 17 262 3.2 8.0 0.00 0.00 0.00 64 1013.5
20260506002004 17 328 3.2 4.8 0.00 0.00 0.00 62 1013.2
20260506001005 17 202 3.2 4.8 0.00 0.00 0.00 61 1013.2
20260506000005 17 125 1.6 1.6 0.00 0.00 0.00 61 1012.9
20260505235005 17 80 1.6 1.6 0.00 0.00 0.00 60 1012.9
20260505234005 17 57 1.6 1.6 0.00 0.00 0.00 60 1012.5
20260505233005 17 83 0.0 3.2 0.00 0.00 0.00 60 1012.5
20260505232005 17 101 0.0 1.6 0.00 0.00 0.00 61 1012.5
20260505231004 17 103 0.0 1.6 0.00 0.00 0.00 60 1012.2
20260505230005 17 26 1.6 1.6 0.00 0.00 0.00 61 1012.5
20260505225005 16 30 0.0 0.0 0.00 0.00 0.00 62 1012.2
20260505223005 17 357 1.6 3.2 0.00 0.00 0.00 59 1012.2
20260505222005 17 126 1.6 3.2 0.00 0.00 0.00 59 1012.2
20260505221004 17 94 0.0 1.6 0.00 0.00 0.00 58 1012.2
20260505220005 17 107 0.0 3.2 0.00 0.00 0.00 58 1011.9
20260505215005 17 208 3.2 3.2 0.00 0.00 0.00 57 1011.8
20260505213004 18 141 4.8 12.9 0.00 0.00 0.00 56 1011.7
20260505211005 18 131 3.2 4.8 0.00 0.00 0.00 55 1011.5
20260505205005 18 108 1.6 4.8 0.00 0.00 0.00 55 1011.5
20260505201004 19 264 4.8 11.3 0.00 0.00 0.00 53 1011.2
20260505200005 19 131 4.8 11.3 0.00 0.00 0.00 53 1010.8
20260505195005 19 78 0.0 8.0 0.00 0.00 0.00 53 1011.2
20260505194005 19 124 4.8 8.0 0.00 0.00 0.00 52 1010.8